Hourly Weather Lukinka

Today, 18 May, Tuesday

Time Temperature Precipitation Wind Pressure Humidity
00:00 +22°C° 0 mm 1 mps 753 mmHg 38%
01:00 +22°C° 0 mm 1 mps 753 mmHg 39%
02:00 +21°C° 0 mm 1 mps 753 mmHg 39%
03:00 +19°C° 0 mm 0 mps 753 mmHg 40%
04:00 +18°C° 0 mm 0 mps 753 mmHg 38%
05:00 +20°C° 0 mm 0 mps 753 mmHg 38%
06:00 +21°C° 0 mm 0 mps 753 mmHg 38%
07:00 +23°C° 0 mm 0 mps 753 mmHg 38%
08:00 +24°C° 0 mm 0 mps 753 mmHg 35%
09:00 +28°C° 0 mm 1 mps 753 mmHg 32%
10:00 +30°C° 0 mm 1 mps 753 mmHg 28%
11:00 +31°C° 0 mm 1 mps 753 mmHg 25%
12:00 +32°C° 0 mm 1 mps 753 mmHg 21%
13:00 +33°C° 0 mm 1 mps 753 mmHg 18%
14:00 +33°C° 0 mm 1 mps 753 mmHg 18%
15:00 +33°C° 0 mm 1 mps 753 mmHg 17%
16:00 +33°C° 0 mm 1 mps 753 mmHg 17%
17:00 +32°C° 0 mm 1 mps 752 mmHg 22%
18:00 +30°C° 0 mm 1 mps 752 mmHg 28%
19:00 +29°C° 0 mm 2 mps 752 mmHg 33%
20:00 +27°C° 0 mm 3 mps 752 mmHg 40%
21:00 +25°C° 0 mm 4 mps 752 mmHg 46%
22:00 +22°C° 0 mm 5 mps 753 mmHg 53%
23:00 +22°C° 0 mm 5 mps 753 mmHg 58%

Tomorrow, 19 May, Wednesday

Time Temperature Precipitation Wind Pressure Humidity
00:00 +21°C° 0 mm 4 mps 753 mmHg 64%
01:00 +20°C° 0 mm 4 mps 752 mmHg 69%
02:00 +19°C° 0 mm 4 mps 753 mmHg 70%
03:00 +18°C° 0 mm 3 mps 753 mmHg 70%
04:00 +18°C° 0 mm 3 mps 753 mmHg 71%
05:00 +18°C° 0 mm 3 mps 753 mmHg 69%
06:00 +19°C° 0 mm 4 mps 753 mmHg 68%
07:00 +20°C° 0 mm 5 mps 753 mmHg 66%
08:00 +21°C° 0 mm 5 mps 753 mmHg 61%
09:00 +23°C° 0 mm 6 mps 753 mmHg 57%
10:00 +24°C° 0 mm 6 mps 753 mmHg 52%
11:00 +26°C° 0 mm 6 mps 753 mmHg 49%
12:00 +27°C° 0 mm 6 mps 753 mmHg 45%
13:00 +28°C° 0 mm 6 mps 754 mmHg 42%
14:00 +28°C° 0 mm 6 mps 754 mmHg 41%
15:00 +28°C° 0 mm 6 mps 754 mmHg 40%
16:00 +28°C° 0 mm 6 mps 754 mmHg 39%
17:00 +27°C° 0 mm 5 mps 754 mmHg 43%
18:00 +26°C° 0 mm 5 mps 754 mmHg 48%
19:00 +25°C° 0 mm 4 mps 754 mmHg 52%
20:00 +23°C° 0 mm 4 mps 754 mmHg 55%
21:00 +21°C° 0 mm 4 mps 754 mmHg 57%
22:00 +19°C° 0 mm 4 mps 754 mmHg 60%
23:00 +19°C° 0 mm 4 mps 754 mmHg 59%

Day after tomorrow, 20 May, Thursday

Time Temperature Precipitation Wind Pressure Humidity
00:00 +18°C° 0 mm 4 mps 755 mmHg 58%
01:00 +17°C° 0 mm 5 mps 755 mmHg 57%
02:00 +17°C° 0 mm 4 mps 755 mmHg 58%
03:00 +17°C° 0 mm 4 mps 755 mmHg 60%
04:00 +15°C° 0 mm 4 mps 755 mmHg 62%
05:00 +16°C° 0 mm 5 mps 755 mmHg 61%
06:00 +16°C° 0 mm 5 mps 755 mmHg 61%
07:00 +17°C° 0 mm 5 mps 755 mmHg 60%
08:00 +19°C° 0 mm 6 mps 755 mmHg 54%
09:00 +21°C° 0 mm 6 mps 755 mmHg 48%
10:00 +22°C° 0 mm 6 mps 755 mmHg 42%
11:00 +23°C° 0 mm 6 mps 755 mmHg 39%
12:00 +24°C° 0 mm 7 mps 755 mmHg 37%
13:00 +26°C° 0 mm 7 mps 754 mmHg 35%
14:00 +26°C° 0 mm 6 mps 754 mmHg 34%
15:00 +26°C° 0 mm 6 mps 754 mmHg 34%
16:00 +26°C° 0 mm 6 mps 754 mmHg 33%
17:00 +24°C° 0 mm 6 mps 753 mmHg 38%
18:00 +23°C° 0 mm 5 mps 753 mmHg 42%
19:00 +22°C° 0 mm 4 mps 753 mmHg 47%
20:00 +21°C° 0 mm 4 mps 753 mmHg 50%
21:00 +19°C° 0 mm 3 mps 753 mmHg 53%
22:00 +17°C° 0 mm 3 mps 753 mmHg 55%
23:00 +17°C° 0 mm 3 mps 752 mmHg 56%

21 May, Friday

Time Temperature Precipitation Wind Pressure Humidity
00:00 +16°C° 0 mm 3 mps 752 mmHg 57%
01:00 +16°C° 0 mm 3 mps 752 mmHg 57%
02:00 +14°C° 0.1 mm 3 mps 752 mmHg 61%
03:00 +14°C° 0.1 mm 3 mps 752 mmHg 64%
04:00 +13°C° 0.1 mm 3 mps 751 mmHg 68%
05:00 +13°C° 0.3 mm 3 mps 751 mmHg 75%
06:00 +14°C° 0.3 mm 3 mps 752 mmHg 82%
07:00 +14°C° 0.3 mm 3 mps 752 mmHg 90%
08:00 +16°C° 0.1 mm 3 mps 752 mmHg 86%
09:00 +17°C° 0.1 mm 3 mps 752 mmHg 82%
10:00 +18°C° 0.1 mm 3 mps 752 mmHg 78%
11:00 +18°C° 0.4 mm 3 mps 752 mmHg 76%
12:00 +19°C° 0.4 mm 4 mps 752 mmHg 73%
13:00 +20°C° 0.4 mm 4 mps 752 mmHg 71%
14:00 +21°C° 0.3 mm 4 mps 752 mmHg 67%
15:00 +22°C° 0.3 mm 4 mps 752 mmHg 63%
16:00 +22°C° 0.3 mm 4 mps 752 mmHg 58%
17:00 +21°C° 0.2 mm 4 mps 752 mmHg 62%
18:00 +20°C° 0.2 mm 3 mps 752 mmHg 65%
19:00 +19°C° 0.2 mm 3 mps 752 mmHg 69%
20:00 +18°C° 0 mm 3 mps 753 mmHg 72%
21:00 +17°C° 0 mm 3 mps 753 mmHg 75%
22:00 +16°C° 0 mm 3 mps 753 mmHg 78%
23:00 +16°C° 0 mm 3 mps 753 mmHg 78%

22 May, Saturday

Time Temperature Precipitation Wind Pressure Humidity
00:00 +16°C° 0 mm 3 mps 754 mmHg 78%
01:00 +16°C° 0 mm 2 mps 754 mmHg 79%
02:00 +15°C° 0 mm 2 mps 754 mmHg 81%
03:00 +15°C° 0 mm 2 mps 754 mmHg 83%
04:00 +14°C° 0 mm 2 mps 755 mmHg 85%
05:00 +15°C° 0 mm 2 mps 755 mmHg 81%
06:00 +16°C° 0 mm 2 mps 755 mmHg 77%
07:00 +17°C° 0 mm 2 mps 755 mmHg 74%
08:00 +19°C° 0 mm 2 mps 756 mmHg 68%
09:00 +20°C° 0 mm 3 mps 756 mmHg 63%
10:00 +22°C° 0 mm 3 mps 756 mmHg 58%
11:00 +24°C° 0 mm 3 mps 756 mmHg 54%
12:00 +25°C° 0 mm 3 mps 756 mmHg 50%
13:00 +25°C° 0 mm 3 mps 756 mmHg 46%
14:00 +26°C° 0 mm 3 mps 756 mmHg 45%
15:00 +26°C° 0 mm 3 mps 756 mmHg 44%
16:00 +26°C° 0 mm 4 mps 756 mmHg 43%
17:00 +25°C° 0 mm 3 mps 756 mmHg 48%
18:00 +24°C° 0 mm 2 mps 756 mmHg 53%
19:00 +23°C° 0 mm 2 mps 756 mmHg 58%
20:00 +22°C° 0 mm 1 mps 756 mmHg 60%
21:00 +20°C° 0 mm 1 mps 756 mmHg 62%
22:00 +19°C° 0 mm 1 mps 757 mmHg 64%
23:00 +19°C° 0 mm 1 mps 757 mmHg 65%

23 May, Sunday

Time Temperature Precipitation Wind Pressure Humidity
00:00 +18°C° 0 mm 1 mps 757 mmHg 66%
01:00 +18°C° 0 mm 1 mps 757 mmHg 67%
02:00 +18°C° 0 mm 1 mps 757 mmHg 68%
03:00 +16°C° 0 mm 1 mps 757 mmHg 68%
04:00 +16°C° 0 mm 2 mps 757 mmHg 69%
05:00 +17°C° 0 mm 2 mps 757 mmHg 67%
06:00 +19°C° 0 mm 1 mps 757 mmHg 65%
07:00 +21°C° 0 mm 1 mps 757 mmHg 62%
08:00 +21°C° 0 mm 2 mps 757 mmHg 58%
09:00 +24°C° 0 mm 2 mps 757 mmHg 53%
10:00 +26°C° 0 mm 3 mps 757 mmHg 48%
11:00 +27°C° 0 mm 2 mps 757 mmHg 46%
12:00 +28°C° 0 mm 2 mps 757 mmHg 43%
13:00 +29°C° 0 mm 2 mps 757 mmHg 41%
14:00 +29°C° 0 mm 2 mps 757 mmHg 42%
15:00 +29°C° 0 mm 2 mps 756 mmHg 44%
16:00 +29°C° 0 mm 2 mps 756 mmHg 45%
17:00 +28°C° 0 mm 2 mps 756 mmHg 49%
18:00 +28°C° 0 mm 2 mps 756 mmHg 52%
19:00 +27°C° 0 mm 2 mps 756 mmHg 55%
20:00 +25°C° 0 mm 2 mps 756 mmHg 57%
21:00 +24°C° 0 mm 3 mps 756 mmHg 60%
22:00 +21°C° 0 mm 3 mps 756 mmHg 62%
23:00 +21°C° 0 mm 4 mps 756 mmHg 65%
Show more

We Need Your Consent

Meteoprog and our Service Providers may store and access personal data such as cookies, device identifiers or other similar technologies on your device and process such data to personalise content and ads, as well as provide social media features and to analyse the traffic.

  • Store and/or access information on your device

    Cookies, device identifiers or other information can be stored or accessed on your device for the purposes indicated above.

  • Personalised ads and content, ad and content measurement, audience insights, and products development

    Ads and content can be personalised based on a profile. More data can be added to better personalise ads and content. Ad and content performance can be measured. Insights about the audience who saw the ads and content can be derived. Such data can be used to develop or improve user’s experience, systems and software.

By clicking ‘I Agree’ you will allow the use of indicated cookies, device identifiers, web beacons or other similar technologies. Your settings can be changed in the browser on your device.

For certain purposes, legitimate interests may be relied on, rather than consent. You can read more about this in our Privacy and Cookie Policy.